Preview of NWS' New Version of Forecast
This preview is not operational and should not be used for support decisions.

Regional Weather Roundup (RWR)

Issued by National Weather Service (NWS)

                            
000
ASUS42 KTBW 152017
RWRFL 
FLORIDA REGIONAL WEATHER ROUNDUP
NATIONAL WEATHER SERVICE TAMPA BAY RUSKIN FL
400 PM EDT SUN SEP 15 2019

NOTE: "FAIR" INDICATES FEW OR NO CLOUDS BELOW 12,000 FEET WITH NO
SIGNIFICANT WEATHER AND/OR OBSTRUCTIONS TO VISIBILITY.

FLZ001>010-012>015-112-114-115-152100-
PANHANDLE FLORIDA
  
CITY           SKY/WX    TMP DP  RH WIND       PRES   REMARKS
PENSACOLA      FAIR      94  70  45 NE8       29.98F HX 100           
PENSACOLA NAS  PTSUNNY   90  71  53 NE10      29.97F HX  96           
MILTON NAS     FAIR      93  32  11 NE9       29.99F                  
CRESTVIEW      FAIR      93  66  40 NE7       30.00F HX  96           
DUKE FIELD     FAIR      93  65  39 NE12      29.98F HX  95           
VALPARAISO     FAIR      93  64  38 NE12G18   29.97F HX  95           
MARY ESTHER    MOSUNNY   91  68  47 E8        29.96F                  
TRI COUNTY     FAIR      91  65  41 E8        29.99F                  
PANAMA CITY    FAIR      94  67  41 N12G17    29.96F HX  97           
TYNDALL AFB    FAIR      92  68  44 NE6       29.96F HX  96           
APALACHICOLA   FAIR      88  74  63 SE10      29.97S HX  96           

STATION/POSITION SKY/WX   TEMP    WIND        PRES    WAVE   SWELL
                          AIR SEA DIR/SP/G            HT/PER HT/PER
                          (F)     (DEG/KT/KT) (MB)    (FT/S) (FT/S)
30.1N   87.6W              85 86   80/ 12/ 16 1015.6F   5/ 6   3/ 8
29.2N   88.2W              84      70/ 17/ 21 1014.9F
28.8N   86.0W                 85   70/ 16/ 21 1014.3F   4/ 6   2/ 7
PANAMA CITY BEAC           90 86   80/  5/ 13 1015.1F
TOWER C                    83      70/ 15/ 16 1014.9F
28.5N   84.5W              83      50/ 12/ 14 1014.5F   4/ 5   2/ 8

$$
FLZ011-016>038-118-127-128-134-139-239-152100-
NORTH FLORIDA
  
CITY           SKY/WX    TMP DP  RH WIND       PRES   REMARKS
MARIANNA       FAIR      92  68  45 NE10      29.97F HX  96           
TALLAHASSEE    PTSUNNY   93  71  48 NE8       29.95F HX 100           
PERRY          FAIR      94  73  50 NE12G18   29.95S HX 103           
LIVE OAK       MOSUNNY   93  72  49 NE12      29.94F HX 100           
CROSS CITY       N/A     89  75  62 NE16      29.93F HX  99           
LAKE CITY      FAIR      82  77  83 NE3       29.96F                  
GAINESVILLE    FAIR      86  75  69 NE20      29.97F HX  95           
WILLISTON      PTSUNNY   88  74  63 NE17G25   29.94S HX  97           
PALATKA        PTSUNNY   86  73  66 NE15G21   29.93F                  
MAYPORT NAS    PTSUNNY   84  75  74 N17G24    29.95F                  
JACKSONVILLE   LGT RAIN  79  75  87 NE12      29.96F                  
JAX NAS        LGT RAIN  85  74  69 N20G32    29.96F                  
JAX CECIL      LGT RAIN  82  77  83 NE14      29.96F                  
FERNANDINA BEA FAIR      82  78  88 NE12G21   29.97S                  
ST AUGUSTINE   FAIR      85  32  15 N22       29.94F                  
PALM COAST     PTSUNNY   79  75  89 NE8G17    29.92S                  

STATION/POSITION SKY/WX   TEMP    WIND        PRES    WAVE   SWELL
                          AIR SEA DIR/SP/G            HT/PER HT/PER
                          (F)     (DEG/KT/KT) (MB)    (FT/S) (FT/S)
SHELL POINT      NOT AVBL
KEATON BEACH               90      70/ 11/ 13 1013.9F
CEDAR KEY                  87      50/  9/ 11 1013.5F
FERNANDINA                 85 84   20/  6/ 13 1015.5F
30.7N   81.3W                 83                N/A     7/10   3/11
MAYPORT                            20/ 18/ 22 1015.1R
31.4N   80.9W              80 83   40/ 21/ 29 1014.6F   7/ 6   3/ 9
ST AUGUSTINE               82 84   10/ 20/ 22 1013.5F

$$
FLZ040-043>046-052-053-057-058-063-144-152100-
INTERIOR CENTRAL FLORIDA
  
CITY           SKY/WX    TMP DP  RH WIND       PRES   REMARKS
OCALA          FAIR      90  73  57 NE8G17    29.93S HX  98           
LEESBURG       FAIR      87  76  69 E10       29.92F HX  97           
SANFORD        FAIR      88  72  58 N17       29.89F                  
ORLANDO EXEC   FAIR      88  71  57 N14G21    29.90F                  
ORLANDO INTL   PTSUNNY   89  73  59 N17       29.89F HX  97           
KISSIMMEE      PTSUNNY   87  74  64 NE15      29.91F HX  95           
WINTER HAVEN   CLOUDY    85  76  74 NE7       29.93R                  
LAKELAND       MOSUNNY   84  73  70 NE12      29.91F                  
BARTOW         DRIZZLE   81  77  89 N6        29.91R                  
SEBRING        TSTM      78  77  95 SW8       29.90F                  
OKEECHOBEE     CLOUDY    84  75  74 NW3       29.89S                  

$$
FLZ041-047-054-059-064-141-147-152100-
EAST CENTRAL FLORIDA
  
CITY           SKY/WX    TMP DP  RH WIND       PRES   REMARKS
ORMOND BEACH   LGT RAIN  77  77 100 N15G22    29.91S                  
DAYTONA BEACH  PTSUNNY   82  79  90 N15       29.89F                  
DELAND         PTSUNNY   86  73  66 N13       29.90S                  
NEW SMYRNA BEA MOSUNNY   84  73  70 NE20G35   29.89F                  
JFK SPACE CTR  MOSUNNY   84  79  83 N13G23    29.86F HX  96           
TITUSVILLE     MOSUNNY   91  75  59 N17       29.88F HX 102           
CAPE CANAVERAL   N/A    N/A N/A N/A MISG        N/A                   
PATRICK AFB    FAIR      87  76  69 N14G20    29.86F HX  98           
MELBOURNE      FAIR      90  74  59 N13       29.86F HX  99           
VERO BEACH     LGT RAIN  86  76  71 N10G22    29.87F HX  96           
FT PIERCE      LGT RAIN  84  76  76 NW6       29.88R                  
STUART         PTSUNNY   81  75  83 N6        29.90                   

STATION/POSITION SKY/WX   TEMP    WIND        PRES    WAVE   SWELL
                          AIR SEA DIR/SP/G            HT/PER HT/PER
                          (F)     (DEG/KT/KT) (MB)    (FT/S) (FT/S)
28.5N   80.2W              83 85  340/ 19/ 23 1010.5F   9/ 9   5/ 9
28.9N   78.5W              80 82  310/ 37/ 49  998.5F  12/ 8
TRIDENT PIER               86 84  350/ 11/ 20 1013.0F
28.4N   80.5W                 83                N/A     4/10   2/11
27.5N   80.2W                 84                N/A     6/ 9   2/11

$$
FLZ050-056-061-142-242-148-248-149-249-151-251-155-255-
160-260-152100-
WEST CENTRAL FLORIDA
  
CITY           SKY/WX    TMP DP  RH WIND       PRES   REMARKS
CRYSTAL RIVER  PTSUNNY   88  77  70 NE5       29.91F HX 100           
INVERNESS      FAIR      91  77  62 N9        29.91F HX 105           
BROOKSVILLE    LGT RAIN  87  76  69 N12G21    29.92F HX  97           
CLEARWATER AIR FAIR      84  75  74 W8        29.91S                  
ST PETE CLEARW FAIR      88  76  67 W10       29.90F HX  99           
TAMPA INTL     LGT RAIN  83  77  82 E10G21    29.91F                  
TAMPA EXEC     FAIR      82  79  89 E3        29.91F                  
PLANT CITY     FAIR      90  77  66 N6        29.92F HX 102           
MACDILL AFB    PTSUNNY   86  77  74 W7        29.90F HX  97           
PETER O KNIGHT HVY RAIN  81  81 100 NW6       29.92S                  
ST PETERSBURG  FAIR      86  76  71 NW10      29.89F HX  96           
SARASOTA       FAIR      91  74  57 W12       29.89F HX 100           
VENICE         FAIR      90  77  66 W10       29.91F HX 102           

STATION/POSITION SKY/WX   TEMP    WIND        PRES    WAVE   SWELL
                          AIR SEA DIR/SP/G            HT/PER HT/PER
                          (F)     (DEG/KT/KT) (MB)    (FT/S) (FT/S)
27.3N   84.2W                 85                N/A     3/ 6
CLEARWATER BEACH           84 86  300/  8/  9 1013.3
MIDDLE TAMPA BAY                  300/ 10/ 11 1013.2F
VENICE                     85 86  260/ 11/ 13 1012.5F

$$
FLZ066-069-070-075>078-162-262-165-265-152100-
SOUTHWEST FLORIDA AND KEYS
  
CITY           SKY/WX    TMP DP  RH WIND       PRES   REMARKS
PUNTA GORDA    FAIR      90  73  57 SW12      29.90F HX  98           
FT MYERS       FAIR      89  73  59 W7        29.88F HX  97           
SOUTHWEST INTL FAIR      90  76  63 W10       29.89F HX 101           
NAPLES         FAIR      89  77  67 W9        29.90F HX 101           
MARCO ISLAND     N/A    N/A N/A N/A VRB7      29.91F                  
IMMOKALEE      FAIR      93  73  52 SW7G22    29.86F HX 102           
MARATHON       FAIR      90  78  68 W9        29.91F HX 104           
KEY WEST NAS   PTSUNNY   89  77  67 W13       29.91F HX 101           
KEY WEST INTL  FAIR      88  77  69 W8        29.91F HX 100           

STATION/POSITION SKY/WX   TEMP    WIND        PRES    WAVE   SWELL
                          AIR SEA DIR/SP/G            HT/PER HT/PER
                          (F)     (DEG/KT/KT) (MB)    (FT/S) (FT/S)
NAPLES                            250/  7/  8 1012.5F
26.0N   85.6W              84 86  150/  6/  8 1013.3
DRY TORTUGAS               85     270/  6/  8 1013.1F
SOMBRERO KEY               85     250/ 12/ 14 1013.2F
LONG KEY                   86                 1012.0

$$
FLZ067-068-071>074-168-172>174-152100-
SOUTHEAST FLORIDA 
  
CITY           SKY/WX    TMP DP  RH WIND       PRES   REMARKS
W PALM BEACH   PTSUNNY   86  74  67 NW18      29.88S                  
BOCA RATON     MOSUNNY   95  72  46 NW12G20   29.87F HX 103           
FT LAUDER-EXEC LGT RAIN  93  73  52 W13G22    29.87F HX 102           
FT LAUDERDALE  FAIR      93  73  52 NW8G20    29.87F HX 102           
POMPANO BEACH  FAIR      95  72  47 W14       29.87F HX 103           
PEMBROKE PINES PTSUNNY   92  73  53 W13       29.89F HX 100           
OPA LOCKA      FAIR      93  74  53 W12       29.89S HX 103           
MIAMI          PTSUNNY   93  72  50 SW10      29.88F HX 101           
WEST KENDALL   FAIR      93  76  57 W14       29.88F HX 105           
HOMESTEAD      FAIR      93  76  57 W14       29.87F HX 104           

STATION/POSITION SKY/WX   TEMP    WIND        PRES    WAVE   SWELL
                          AIR SEA DIR/SP/G            HT/PER HT/PER
                          (F)     (DEG/KT/KT) (MB)    (FT/S) (FT/S)
VIRGINIA KEY               89 87  230/ 10/ 12 1011.5
LAKE WORTH                 90 85  290/  7/ 15 1012.6S
FOWEY ROCKS                89 86  240/  9/ 10 1012.1F
SETT